Regional Weather Roundup
Issued by NWS

Home | Current Version | Previous Version | Text Only | Print | Product List | Glossary On
Versions: 1 2 3 4 5 6 7 8 9 10 11 12 13 14 15 16 17 18 19 20 21 22 23 24 25 26 27
000
ASUS44 KBMX 230210
RWRAL

ALABAMA REGIONAL WEATHER ROUNDUP
NATIONAL WEATHER SERVICE BIRMINGHAM AL
900 PM CDT WED OCT 22 2014

NOTE: "FAIR" INDICATES FEW OR NO CLOUDS BELOW 12,000 FEET
WITH NO SIGNIFICANT WEATHER AND/OR OBSTRUCTIONS TO VISIBILITY.

THE REMARK "TC" DENOTES TEMPERATURE IN DEGREES CELSIUS.

ALZ001>011-014-016>018-020-230300-
NORTH ALABAMA

CITY           SKY/WX    TMP DP  RH WIND       PRES   REMARKS
MUSCLE SHOALS  CLEAR     55  40  56 E3        30.20R
HUNTSVILLE     CLEAR     55  42  61 N7        30.17R
DECATUR        CLEAR     53  42  66 N8        30.18R
HALEYVILLE     FAIR      50  42  73 CALM      30.19R
GADSDEN        CLEAR     48  39  71 CALM      30.15S
$$

ALZ012-013-022-023-030>036-040>044-230300-
WEST CENTRAL ALABAMA

CITY           SKY/WX    TMP DP  RH WIND       PRES   REMARKS
TUSCALOOSA     CLEAR     54  45  71 N3        30.14S
$$

ALZ015-024>027-033>036-040>044-230300-
CENTRAL ALABAMA

CITY           SKY/WX    TMP DP  RH WIND       PRES   REMARKS
BIRMINGHAM     CLEAR     51  45  79 CALM      30.16S
MONTGOMERY     CLEAR     57  45  64 N5        30.11R
SHELBY CO ARPT CLEAR     55  45  68 N3        30.14R
MAXWELL AFB    CLEAR     57  46  65 N6        30.11R
GREENVILLE     FAIR      57  44  62 N5        30.10R
$$

ALZ019-021-028-029-037-038-045>048-230300-
EAST CENTRAL ALABAMA

CITY           SKY/WX    TMP DP  RH WIND       PRES   REMARKS
ANNISTON       CLEAR     50  42  74 S3        30.14S
ALEXANDER CITY CLEAR     56  46  70 N3        30.13R
AUBURN         CLEAR     54  39  58 N7        30.14R
$$

ALZ051>064-230300-
SOUTHWEST ALABAMA

CITY           SKY/WX    TMP DP  RH WIND       PRES   REMARKS
MOBILE         CLEAR     60  49  66 NE6       30.09R
BROOKLEY FIELD CLEAR     66  51  58 N12       30.09R
EVERGREEN      CLEAR     53  48  83 NW3       30.10R
$$

ALZ049-050-065>069-230300-
SOUTHEAST ALABAMA

CITY           SKY/WX    TMP DP  RH WIND       PRES   REMARKS
DOTHAN         CLEAR     56  45  66 NE5       30.10R
OZARK          CLEAR     59  45  60 N5        30.08R
TROY           CLEAR     53  46  77 N6        30.10R
EUFAULA        FAIR      49  46  90 CALM      30.08R
$$



USA.gov is the U.S. government's official web portal to all federal, state and local government web resources and services.